CAPE
0 0 0 0 0 0 8 0 0 0 0 0 0 96 66 68 169 652 1022 226 150 887 1837 1457 2158 2367 2468 2540 2462 2243 1954 1785 1766 1788 1650 1697 1843 1880 1796 1699 1327 898 394 76 0 0 0 44 169
0 0 0 0 0 0 50 0 0 0 0 0 0 1 51 80 186 744 764 287 487 1018 1875 1216 2039 2260 2401 2190 2360 2151 2044 1960 1956 1948 1794 1817 1874 1836 1615 1549 1121 609 178 18 0 0 1 35 255
0 0 0 0 0 1 11 0 0 0 0 0 0 0 0 27 27 623 890 549 614 1133 1427 1365 2032 2077 2244 2271 2226 2144 2123 2044 2079 2082 1968 1925 1875 1783 1625 1479 1194 453 92 0 0 0 0 0 4
0 0 0 0 0 0 0 0 0 0 0 0 0 0 0 0 37 708 837 768 940 989 1056 1631 1976 1953 2037 1955 2105 2107 2116 2097 2119 2124 1972 1850 1758 1626 1451 1355 1106 735 71 0 0 0 0 0 0
0 0 0 0 0 0 0 0 0 0 0 0 0 0 0 0 818 1246 1031 897 1130 972 903 1852 1946 1923 1933 1862 1798 1977 2004 1979 2007 2005 1899 1765 1663 1457 1348 1295 993 638 152 24 0 0 5 0 0
0 0 0 0 0 0 0 0 0 0 0 0 0 0 0 0 232 1411 1402 1487 1053 982 960 1461 1688 1806 1749 1830 1806 1764 1728 1782 1853 1853 1798 1680 1501 1342 1287 1192 943 673 313 103 16 9 19 8 0
0 0 0 0 0 0 0 0 0 0 0 0 0 0 0 0 0 896 1690 1680 1105 962 1066 1668 1097 1268 1625 1652 1665 1602 1556 1583 1676 1647 1568 1537 1310 1205 1115 1025 864 657 461 301 123 30 30 27 6
0 0 0 0 0 0 0 0 0 0 0 0 0 0 0 0 0 33 1445 1675 1092 900 900 1608 1258 779 666 761 1657 1600 1554 1606 1593 1577 1491 1409 1116 983 893 809 743 512 341 245 135 56 40 28 22
0 0 0 0 0 0 0 0 0 0 0 0 0 0 0 0 0 12 570 1531 1227 793 893 1275 1263 996 751 648 1006 1450 1410 1534 1617 1470 1429 1018 354 259 193 88 727 443 292 192 148 95 75 25 41
0 0 0 0 0 0 0 0 0 0 0 0 0 0 0 0 0 4 237 890 1306 994 810 1160 1404 1285 979 596 1033 784 585 508 487 559 860 800 290 101 42 112 371 315 273 224 201 168 116 29 0
0 0 0 0 0 0 0 0 0 0 0 0 0 0 0 0 0 0 82 277 1024 1126 1063 1146 1798 1886 1556 853 980 858 681 557 440 451 753 792 287 317 247 150 192 82 237 27 49 30 2 0 0
0 0 0 0 0 0 0 0 0 0 0 0 0 0 0 0 0 0 0 359 894 1223 1336 1418 1833 2326 2542 1403 1103 1070 735 739 680 691 921 1051 656 500 315 118 68 95 61 32 61 25 25 57 192
0 0 0 0 0 0 0 0 0 0 0 0 0 0 0 0 0 0 0 0 388 887 1431 1803 1842 2462 2529 2332 1599 1657 1592 1046 1117 1133 1362 1057 784 949 522 346 238 162 75 79 94 42 50 155 511
0 0 0 0 0 0 0 0 0 0 0 0 0 0 0 0 0 0 0 0 19 632 1329 1846 2199 2558 2544 2538 2525 2056 1890 1614 1509 1359 1336 1679 1342 1547 798 700 527 304 178 104 75 67 105 334 670
0 0 0 0 0 0 0 0 0 0 0 0 0 0 0 0 0 0 0 0 0 0 187 1929 2520 2715 2930 3064 3001 2893 2217 1905 1687 1695 2348 1993 2073 1708 1548 983 810 528 500 388 341 264 339 650 765
0 0 0 0 0 0 0 0 0 0 0 0 0 0 0 0 0 0 0 0 0 0 0 718 1660 2175 3102 3074 3107 2970 2436 2234 1921 1871 2072 2342 2618 2098 2191 1357 1180 1062 1032 652 412 307 369 538 756
0 0 0 0 0 0 0 0 0 0 0 0 0 0 0 0 0 0 0 0 0 0 0 110 788 1905 2624 3371 3211 3106 3355 2756 2283 2167 2337 2600 1891 1975 2646 2180 1521 1835 1127 877 669 437 396 373 662
0 0 0 0 0 0 0 0 0 0 0 0 0 0 0 0 0 0 0 0 0 0 0 9 325 2356 2793 3267 3564 2992 2691 2587 2411 2308 2347 2635 2368 2286 2572 2288 2244 2155 1175 1173 964 924 520 425 328
0 0 0 0 0 0 0 0 0 0 0 0 0 0 0 0 0 0 0 0 0 0 0 41 75 1936 2914 3057 3302 3189 2908 2731 2571 2426 2519 2371 2359 2402 3329 2234 2325 1754 1441 1811 1656 1082 843 548 1024
0 0 0 0 0 0 0 0 0 0 0 0 0 0 0 0 0 0 0 0 0 0 0 16 176 676 2415 2870 3018 2981 2911 2738 2682 2524 2845 2765 2722 2641 2523 2636 2375 1987 1530 1464 1241 1327 763 1109 1617
0 0 0 0 0 0 0 0 0 0 0 0 0 0 0 0 0 0 0 0 0 0 0 0 51 396 947 2766 2830 3098 2937 2916 2796 2852 2985 3016 2954 2812 2559 2424 2356 1919 1478 1335 1622 2054 2188 1903 1625
0 0 0 0 0 0 0 0 0 0 0 0 0 0 0 0 0 0 0 0 0 0 0 0 0 121 430 995 2242 3825 2903 2607 2512 3099 2949 3179 3211 2998 2630 2421 2449 2602 2085 1899 2213 2194 2265 2249 1698
0 0 0 0 0 0 0 0 0 0 0 0 0 0 0 0 0 0 0 0 0 0 0 0 0 13 237 700 1266 2175 3353 2410 2205 2411 3531 4180 4044 3221 2589 2603 2591 2130 1917 1921 2386 2522 2309 1504 954
0 0 0 0 0 0 0 0 0 0 0 0 0 0 0 0 0 0 0 0 0 0 0 0 0 84 191 402 886 1812 3031 3134 2125 2453 2650 2929 3403 3644 3483 3269 3536 3607 4012 3517 3089 2158 2455 1850 1186
0 0 0 0 0 0 0 0 0 0 0 0 0 0 0 0 0 0 0 0 0 0 0 0 0 20 157 226 436 923 2003 3360 4148 3850 3130 3382 2979 4397 4030 3982 3980 3673 3841 3231 2236 2216 2431 1974 1691
0 0 0 0 0 0 0 0 0 0 0 0 0 0 0 0 0 0 0 0 0 0 0 0 0 7 173 265 314 582 971 1707 2583 3541 2946 2855 2908 3483 3653 3923 3670 3599 3386 3065 2837 2545 2350 2312 1887
0 0 0 0 0 0 0 0 9 10 0 0 0 0 0 0 0 0 0 0 0 0 0 0 0 53 115 322 415 505 772 1893 2457 2822 3496 3304 3521 2710 2916 3314 3417 3398 3244 3061 3143 2614 2535 2342 2134
0 0 0 0 0 0 0 0 0 0 9 7 0 2 0 0 0 0 0 0 0 0 0 13 34 39 112 247 549 532 783 1259 1910 2305 2163 1892 1333 798 1111 1336 1563 1717 1894 2332 2811 2860 2654 2801 2201
0 0 0 0 0 0 0 0 0 0 6 16 3 0 0 0 0 0 0 2 1 0 0 12 50 58 93 87 453 691 781 841 922 1078 965 901 974 811 657 639 674 805 1027 1351 1817 2076 2170 2294 2522
0 0 0 0 0 0 0 0 0 17 31 20 10 19 1 0 0 3 2 13 14 5 0 5 35 70 213 117 108 206 542 811 881 1007 1124 1131 1131 962 775 839 903 930 950 1276 1442 1374 1292 1651 1882
CIN
0 0 0 0 0 0 -1 0 0 0 0 0 0 -106 -48 -57 -41 -12 -212 -303 -272 -245 -227 -277 -154 -89 -68 -48 -46 -64 -87 -104 -99 -80 -74 -58 -49 -42 -37 -33 -62 -104 -142 -256 0 0 0 -233 -137
0 0 0 0 0 -1 0 0 0 0 0 0 0 -22 -63 -104 -105 -127 -176 -301 -280 -243 -215 -274 -166 -98 -68 -68 -53 -64 -81 -91 -88 -72 -73 -62 -58 -54 -65 -67 -92 -139 -213 -367 0 0 -40 -278 -100
0 0 0 0 0 -1 -4 0 0 0 0 0 0 0 0 -98 -104 -91 -151 -250 -248 -234 -215 -235 -166 -116 -66 -57 -58 -60 -67 -76 -74 -63 -61 -62 -74 -68 -66 -70 -94 -182 -275 0 0 0 0 0 -76
0 0 0 0 0 0 0 -1 0 0 0 0 0 0 0 0 -136 -85 -140 -179 -189 -197 -231 -255 -165 -138 -91 -71 -52 -57 -57 -52 -50 -49 -61 -70 -87 -95 -100 -97 -99 -136 -321 0 0 0 0 0 0
0 0 0 0 0 0 0 0 0 0 0 0 0 0 0 0 -61 -64 -89 -109 -115 -156 -200 -179 -175 -155 -108 -91 -76 -59 -58 -53 -43 -40 -60 -74 -85 -106 -121 -126 -151 -176 -256 -384 0 0 -388 0 0
0 0 0 0 0 0 0 0 0 0 0 0 0 0 0 0 -54 -42 -59 -75 -90 -133 -178 -183 -182 -165 -147 -103 -76 -63 -62 -68 -51 -50 -50 -72 -86 -106 -118 -124 -147 -184 -235 -287 -194 -199 -402 -346 0
0 0 0 0 0 0 0 0 0 0 0 0 0 0 0 0 0 -62 -59 -70 -73 -119 -154 -152 -220 -198 -134 -98 -85 -77 -68 -65 -75 -67 -68 -68 -97 -101 -118 -140 -159 -188 -216 -241 -303 -411 -406 -422 -376
0 0 0 0 0 0 0 0 0 0 0 0 0 0 0 0 0 -41 -41 -60 -66 -96 -115 -133 -175 -217 -240 -237 -96 -85 -69 -62 -73 -75 -80 -75 -92 -121 -137 -156 -165 -211 -248 -267 -330 -413 -438 -454 -463
0 0 0 0 0 0 0 0 0 0 0 0 0 0 0 0 0 -39 -31 -34 -52 -72 -92 -112 -140 -171 -185 -188 -184 -116 -104 -69 -58 -85 -80 -130 -154 -196 -246 -316 -150 -211 -261 -312 -325 -367 -405 -495 -475
0 0 0 0 0 0 0 0 0 0 0 0 0 0 0 0 0 -49 -22 -11 -33 -47 -61 -75 -100 -123 -150 -157 -129 -198 -213 -209 -201 -171 -121 -125 -174 -245 -312 -299 -213 -228 -245 -287 -315 -327 -366 -462 0
0 0 0 0 0 0 0 0 0 0 0 0 0 0 0 0 0 0 -26 -11 -12 -30 -52 -63 -97 -96 -99 -132 -130 -137 -162 -198 -211 -202 -141 -139 -192 -168 -176 -195 -212 -308 -272 -314 -365 -360 -50 0 0
0 0 0 0 0 0 0 0 0 0 0 0 0 0 0 0 0 0 0 -18 -8 -12 -45 -76 -94 -96 -74 -113 -129 -136 -140 -154 -170 -175 -151 -101 -159 -172 -178 -169 -187 -237 -230 -275 -235 -245 -272 -240 -204
0 0 0 0 0 0 0 0 0 0 0 0 0 0 0 0 0 0 0 0 -35 -20 -25 -59 -92 -82 -85 -80 -101 -85 -87 -129 -111 -129 -124 -131 -133 -131 -178 -166 -151 -157 -160 -184 -184 -213 -236 -205 -131
0 0 0 0 0 0 0 0 0 0 0 0 0 0 0 0 0 0 0 0 -42 -42 -36 -57 -76 -74 -77 -74 -50 -85 -84 -73 -87 -73 -95 -92 -127 -99 -163 -171 -152 -153 -165 -161 -183 -186 -187 -129 -89
0 0 0 0 0 0 0 0 0 0 0 0 0 0 0 0 0 0 0 0 0 0 -61 -45 -51 -52 -63 -57 -45 -39 -70 -80 -75 -65 -28 -63 -82 -101 -120 -128 -166 -156 -148 -182 -185 -195 -179 -115 -78
0 0 0 0 0 0 0 0 0 0 0 0 0 0 0 0 0 0 0 0 0 0 0 -63 -29 -57 -54 -66 -57 -41 -60 -65 -72 -53 -53 -56 -50 -88 -74 -73 -91 -118 -161 -144 -125 -137 -109 -98 -70
0 0 0 0 0 0 0 0 0 0 0 0 0 0 0 0 0 0 0 0 0 0 0 -146 -63 -63 -70 -46 -45 -40 -12 -29 -57 -65 -55 -65 -116 -116 -54 -58 -40 -76 -153 -153 -96 -91 -115 -94 -83
0 0 0 0 0 0 0 0 0 0 0 0 0 0 0 0 0 0 0 0 0 0 0 -276 -185 -61 -77 -39 -32 -36 -41 -51 -65 -80 -86 -78 -95 -74 -45 -67 -76 -60 -190 -114 -132 -97 -108 -96 -71
0 0 0 0 0 0 0 0 0 0 0 0 0 0 0 0 0 0 0 0 0 0 0 -257 -240 -104 -39 -35 -24 -35 -48 -56 -55 -56 -64 -80 -89 -60 -11 -44 -43 -79 -111 -25 -75 -112 -96 -84 -27
0 0 0 0 0 0 0 0 0 0 0 0 0 0 0 0 0 0 0 0 0 0 0 -169 -160 -155 -50 -17 -17 -8 -9 -19 -39 -43 -40 -61 -71 -61 -51 -40 -22 -56 -84 -82 -109 -35 -98 -44 0
0 0 0 0 0 0 0 0 0 0 0 0 0 0 0 0 0 0 0 0 0 0 0 0 -111 -174 -155 -24 -6 -4 -10 -11 -3 -14 -35 -62 -76 -66 -71 -68 -36 -37 -83 -84 -47 -32 -29 -4 0
0 0 0 0 0 0 0 0 0 0 0 0 0 0 0 0 0 0 0 0 0 0 0 0 0 -217 -172 -168 -30 0 -1 -7 -11 -8 -20 -31 -48 -52 -63 -66 -37 -13 -23 -16 -6 -50 -30 -5 -35
0 0 0 0 0 0 0 0 0 0 0 0 0 0 0 0 0 0 0 0 0 0 0 0 0 -136 -197 -168 -123 -15 0 -5 -13 0 0 0 0 -29 -51 -53 -40 -70 -82 -106 -9 -3 -40 -51 -112
0 0 0 0 0 0 0 0 0 0 0 0 0 0 0 0 0 0 0 0 0 0 0 0 0 -188 -201 -190 -141 -88 -7 -7 -22 0 0 0 0 0 -10 -9 -2 0 0 0 0 -31 -4 -32 -20
0 0 0 0 0 0 0 0 0 0 0 0 0 0 0 0 0 0 0 0 0 0 0 0 0 -72 -139 -159 -164 -136 -62 -4 0 0 0 0 0 -2 -1 0 0 0 0 0 -16 -2 0 -20 -27
0 0 0 0 0 0 0 0 0 0 0 0 0 0 0 0 0 0 0 0 0 0 0 0 0 -52 -95 -121 -151 -150 -141 -59 -6 0 0 0 0 0 0 0 0 -2 0 -2 -1 -2 -8 -3 -6
0 0 0 0 0 0 0 0 0 -2 0 0 0 0 0 0 0 0 0 0 0 0 0 0 -3 -51 -66 -86 -117 -152 -148 -52 -12 -1 0 0 0 0 0 -1 0 0 0 0 0 -2 -1 -7 -5
0 0 0 0 0 0 0 0 0 0 0 -1 0 0 0 0 0 0 0 0 0 0 0 -7 -18 -23 -33 -40 -42 -66 -70 -53 -23 0 -12 -19 -65 -83 -78 -74 -59 -35 -31 -5 0 0 0 0 -1
0 0 0 0 0 0 0 0 0 0 0 -1 0 0 0 0 0 0 0 0 0 0 0 -2 -3 -19 -52 -65 -4 -3 -6 -13 -12 -8 -32 -52 -66 -81 -78 -80 -91 -74 -52 -35 -4 0 0 0 0
0 0 0 0 0 0 0 0 0 -1 0 0 -3 0 0 0 0 0 0 0 0 0 0 -45 -45 -30 -33 -74 -76 -8 0 0 -9 -15 -17 -22 -22 -24 -33 -39 -42 -32 -13 -2 0 0 0 0 0
Wind_Speed
nan nan nan nan nan nan nan nan nan nan nan nan nan nan nan nan 27 27 18 18 20 19 18 16 14 12 12 12 14 19 20 19 19 19 18 19 21 20 19 16 15 18 18 nan nan nan nan nan 20
nan nan nan nan nan nan nan nan nan nan nan nan nan nan nan nan 32 34 28 23 24 23 22 18 15 14 13 14 14 17 21 19 19 18 17 15 15 16 17 17 17 19 20 nan nan nan nan nan 18
nan nan nan nan nan nan nan nan nan nan nan nan nan nan nan nan nan 33 36 32 30 29 25 24 23 22 21 18 16 17 21 22 18 17 16 15 15 14 12 13 15 17 nan nan nan nan nan nan nan
nan nan nan nan nan nan nan nan nan nan nan nan nan nan nan nan nan 39 41 38 38 33 33 35 27 26 28 26 24 23 21 21 21 20 17 15 16 17 15 14 11 12 nan nan nan nan nan nan nan
nan nan nan nan nan nan nan nan nan nan nan nan nan nan nan nan 45 45 45 40 37 38 36 35 29 31 29 31 30 29 26 23 20 20 21 18 15 16 15 15 16 15 14 nan nan nan nan nan nan
nan nan nan nan nan nan nan nan nan nan nan nan nan nan nan nan 44 44 44 42 39 39 39 41 36 35 33 32 32 32 30 27 23 21 21 22 19 16 14 14 15 17 17 17 nan nan nan nan nan
nan nan nan nan nan nan nan nan nan nan nan nan nan nan nan nan nan 43 40 40 40 41 36 38 35 34 35 32 33 33 34 30 26 24 23 21 21 18 15 13 14 15 15 17 18 nan nan nan nan
nan nan nan nan nan nan nan nan nan nan nan nan nan nan nan nan nan nan 42 40 41 41 38 35 31 32 32 30 32 32 32 32 32 29 26 23 20 19 17 16 13 15 15 15 16 nan nan nan nan
nan nan nan nan nan nan nan nan nan nan nan nan nan nan nan nan nan nan 36 40 41 41 42 36 31 29 27 29 32 32 34 34 33 34 30 28 22 25 25 nan 25 15 15 16 15 nan nan nan nan
nan nan nan nan nan nan nan nan nan nan nan nan nan nan nan nan nan nan 39 41 37 39 42 42 35 32 32 32 34 31 32 29 28 26 28 22 21 22 nan 26 28 19 15 15 16 15 13 nan nan
nan nan nan nan nan nan nan nan nan nan nan nan nan nan nan nan nan nan nan 37 45 42 42 42 45 45 37 36 37 32 33 30 28 24 22 21 21 21 22 23 25 nan 22 nan nan nan nan nan nan
nan nan nan nan nan nan nan nan nan nan nan nan nan nan nan nan nan nan nan 39 41 45 46 44 45 45 44 43 40 39 42 37 33 30 26 24 26 27 21 24 nan nan nan nan nan nan nan nan 14
nan nan nan nan nan nan nan nan nan nan nan nan nan nan nan nan nan nan nan nan 42 42 41 41 42 41 44 40 43 42 43 43 34 32 32 31 33 36 37 31 26 29 nan nan nan nan nan 20 19
nan nan nan nan nan nan nan nan nan nan nan nan nan nan nan nan nan nan nan nan nan 41 39 43 41 40 40 40 40 45 42 36 37 36 39 39 40 42 40 45 41 32 31 31 nan nan 29 27 26
nan nan nan nan nan nan nan nan nan nan nan nan nan nan nan nan nan nan nan nan nan nan 41 39 38 40 37 38 35 36 39 39 41 39 37 36 39 37 40 43 44 37 36 34 34 35 34 33 31
nan nan nan nan nan nan nan nan nan nan nan nan nan nan nan nan nan nan nan nan nan nan nan 38 36 34 31 29 31 32 35 35 38 41 40 33 35 39 47 49 50 47 49 42 39 40 38 38 38
nan nan nan nan nan nan nan nan nan nan nan nan nan nan nan nan nan nan nan nan nan nan nan 37 37 34 33 33 32 33 34 36 36 38 39 39 42 46 50 54 57 53 54 50 46 45 44 43 45
nan nan nan nan nan nan nan nan nan nan nan nan nan nan nan nan nan nan nan nan nan nan nan nan 38 40 40 41 42 39 39 40 38 36 37 35 36 39 43 43 54 55 59 60 53 48 50 50 49
nan nan nan nan nan nan nan nan nan nan nan nan nan nan nan nan nan nan nan nan nan nan nan nan nan 40 45 48 48 46 44 43 42 41 38 39 35 37 45 55 48 55 67 60 58 62 56 54 54
nan nan nan nan nan nan nan nan nan nan nan nan nan nan nan nan nan nan nan nan nan nan nan nan 47 43 44 48 51 49 48 47 45 42 41 43 41 44 46 48 54 54 63 68 61 53 63 61 57
nan nan nan nan nan nan nan nan nan nan nan nan nan nan nan nan nan nan nan nan nan nan nan nan nan 49 47 42 47 50 51 51 48 46 43 39 41 45 51 56 55 59 63 64 67 66 59 59 59
nan nan nan nan nan nan nan nan nan nan nan nan nan nan nan nan nan nan nan nan nan nan nan nan nan 48 47 46 47 45 47 48 48 47 47 49 49 47 51 55 58 60 63 64 57 51 67 61 59
nan nan nan nan nan nan nan nan nan nan nan nan nan nan nan nan nan nan nan nan nan nan nan nan nan nan 48 48 47 47 46 45 46 49 51 54 55 51 53 56 62 58 56 54 54 44 57 62 68
nan nan nan nan nan nan nan nan nan nan nan nan nan nan nan nan nan nan nan nan nan nan nan nan nan nan 49 48 46 46 44 45 45 47 47 46 51 54 53 54 55 59 60 57 55 54 54 55 54
nan nan nan nan nan nan nan nan nan nan nan nan nan nan nan nan nan nan nan nan nan nan nan nan nan nan 53 51 48 45 44 43 44 47 51 47 51 55 53 53 53 53 56 57 62 58 51 53 53
nan nan nan nan nan nan nan nan nan nan nan nan nan nan nan nan nan nan nan nan nan nan nan nan nan nan 58 55 52 50 47 49 49 52 52 52 53 59 55 54 56 54 54 55 58 60 58 55 52
nan nan nan nan nan nan nan nan nan nan nan nan nan nan nan nan nan nan nan nan nan nan nan nan nan nan 56 55 56 54 51 49 49 47 52 50 55 59 54 49 53 55 54 55 57 56 57 54 51
nan nan nan nan nan nan nan nan nan nan nan nan nan nan nan nan nan nan nan nan nan nan nan nan nan nan 62 63 61 59 58 54 51 50 52 57 56 53 55 52 53 55 54 52 51 54 57 57 56
nan nan nan nan nan nan nan nan nan nan nan nan nan nan nan nan nan nan nan nan nan nan nan nan nan nan nan nan 73 70 67 63 60 56 56 61 61 59 59 57 55 55 52 48 48 48 50 53 53
nan nan nan nan nan nan nan nan nan nan nan nan nan nan nan nan nan nan nan nan nan nan nan nan nan nan 46 57 58 57 64 64 60 57 59 60 62 61 58 52 50 48 41 41 42 45 44 44 46
Wind_Direction
nan nan nan nan nan nan nan nan nan nan nan nan nan nan nan nan 224 227 257 275 287 301 301 315 303 309 317 333 349 341 343 340 343 350 357 354 351 349 344 342 335 334 339 nan nan nan nan nan 357
nan nan nan nan nan nan nan nan nan nan nan nan nan nan nan nan 242 257 268 269 291 294 300 303 290 295 303 329 335 338 332 335 336 341 345 348 347 348 341 337 335 335 340 nan nan nan nan nan 0
nan nan nan nan nan nan nan nan nan nan nan nan nan nan nan nan nan 250 263 275 284 288 294 292 289 290 293 299 312 322 332 331 331 337 342 337 335 335 332 328 331 332 nan nan nan nan nan nan nan
nan nan nan nan nan nan nan nan nan nan nan nan nan nan nan nan nan 241 269 277 286 289 293 285 285 285 291 297 299 303 315 323 328 334 334 336 327 326 324 317 313 321 nan nan nan nan nan nan nan
nan nan nan nan nan nan nan nan nan nan nan nan nan nan nan nan 247 254 262 265 276 284 288 290 285 286 288 293 295 297 303 310 315 329 328 321 314 318 319 318 315 313 312 nan nan nan nan nan nan
nan nan nan nan nan nan nan nan nan nan nan nan nan nan nan nan 248 253 259 260 269 275 282 287 290 288 288 291 293 294 298 298 300 304 319 315 312 315 318 313 308 304 305 306 nan nan nan nan nan
nan nan nan nan nan nan nan nan nan nan nan nan nan nan nan nan nan 254 260 265 273 280 283 282 290 289 286 286 292 296 300 300 300 299 305 308 307 305 307 308 307 300 297 297 301 nan nan nan nan
nan nan nan nan nan nan nan nan nan nan nan nan nan nan nan nan nan nan 263 270 276 277 278 276 279 283 288 289 289 291 294 298 299 300 301 303 305 300 297 292 293 297 294 291 295 nan nan nan nan
nan nan nan nan nan nan nan nan nan nan nan nan nan nan nan nan nan nan 265 269 265 276 278 278 275 277 278 283 286 288 295 294 295 300 300 295 304 308 305 nan 289 287 289 287 287 nan nan nan nan
nan nan nan nan nan nan nan nan nan nan nan nan nan nan nan nan nan nan 273 275 276 271 270 274 271 269 273 270 276 282 284 282 287 290 296 294 297 293 nan 285 283 282 277 274 282 287 286 nan nan
nan nan nan nan nan nan nan nan nan nan nan nan nan nan nan nan nan nan nan 265 274 270 267 267 268 270 269 268 265 263 267 266 267 276 272 274 270 269 272 272 276 nan 283 nan nan nan nan nan nan
nan nan nan nan nan nan nan nan nan nan nan nan nan nan nan nan nan nan nan 263 263 270 275 276 278 274 271 262 262 266 263 266 264 265 268 254 256 258 248 252 nan nan nan nan nan nan nan nan 275
nan nan nan nan nan nan nan nan nan nan nan nan nan nan nan nan nan nan nan nan 255 266 271 274 276 277 278 277 270 265 262 257 258 258 267 258 259 250 254 237 237 245 nan nan nan nan nan 260 268
nan nan nan nan nan nan nan nan nan nan nan nan nan nan nan nan nan nan nan nan nan 263 267 269 276 274 271 268 270 272 277 275 267 265 267 272 253 246 249 250 237 232 237 244 nan nan 251 254 255
nan nan nan nan nan nan nan nan nan nan nan nan nan nan nan nan nan nan nan nan nan nan 264 270 275 280 274 267 265 262 268 266 260 258 249 259 263 253 246 251 258 247 232 238 244 248 253 251 256
nan nan nan nan nan nan nan nan nan nan nan nan nan nan nan nan nan nan nan nan nan nan nan 271 269 274 275 269 267 262 272 270 265 263 268 271 261 258 238 246 247 250 242 237 234 243 243 248 251
nan nan nan nan nan nan nan nan nan nan nan nan nan nan nan nan nan nan nan nan nan nan nan 260 267 270 273 270 261 262 263 263 265 265 262 267 257 264 261 261 244 243 252 246 231 232 238 242 245
nan nan nan nan nan nan nan nan nan nan nan nan nan nan nan nan nan nan nan nan nan nan nan nan 267 275 279 275 271 264 264 265 267 268 266 265 260 264 270 265 255 259 256 246 251 246 243 237 245
nan nan nan nan nan nan nan nan nan nan nan nan nan nan nan nan nan nan nan nan nan nan nan nan nan 263 269 274 277 276 276 273 264 265 268 264 258 254 254 252 267 265 266 265 264 255 245 242 248
nan nan nan nan nan nan nan nan nan nan nan nan nan nan nan nan nan nan nan nan nan nan nan nan 254 256 261 264 268 269 268 268 268 263 259 263 263 262 259 257 261 265 265 272 270 262 263 250 245
nan nan nan nan nan nan nan nan nan nan nan nan nan nan nan nan nan nan nan nan nan nan nan nan nan 259 263 259 258 258 258 259 261 263 263 266 271 265 265 265 260 263 261 266 274 278 270 272 259
nan nan nan nan nan nan nan nan nan nan nan nan nan nan nan nan nan nan nan nan nan nan nan nan nan 257 261 265 264 262 260 262 263 261 265 266 273 271 268 268 266 266 266 264 271 263 275 273 269
nan nan nan nan nan nan nan nan nan nan nan nan nan nan nan nan nan nan nan nan nan nan nan nan nan nan 256 257 263 263 266 258 256 256 254 262 264 269 274 273 275 272 267 265 262 274 278 277 266
nan nan nan nan nan nan nan nan nan nan nan nan nan nan nan nan nan nan nan nan nan nan nan nan nan nan 246 250 255 260 258 262 256 256 253 253 261 267 271 273 273 273 272 272 272 266 266 270 274
nan nan nan nan nan nan nan nan nan nan nan nan nan nan nan nan nan nan nan nan nan nan nan nan nan nan 247 247 248 251 253 252 252 251 256 250 257 260 267 271 271 269 271 275 274 275 272 273 274
nan nan nan nan nan nan nan nan nan nan nan nan nan nan nan nan nan nan nan nan nan nan nan nan nan nan 244 247 250 250 250 252 252 250 247 253 258 264 265 269 268 268 269 271 273 272 274 275 276
nan nan nan nan nan nan nan nan nan nan nan nan nan nan nan nan nan nan nan nan nan nan nan nan nan nan 250 246 248 250 253 253 253 256 259 254 256 261 265 263 263 265 267 269 270 270 273 274 276
nan nan nan nan nan nan nan nan nan nan nan nan nan nan nan nan nan nan nan nan nan nan nan nan nan nan 251 251 249 249 251 254 254 253 261 261 259 256 258 258 258 259 260 262 266 267 271 273 275
nan nan nan nan nan nan nan nan nan nan nan nan nan nan nan nan nan nan nan nan nan nan nan nan nan nan nan nan 243 244 245 249 251 253 254 254 252 247 247 252 255 258 262 265 263 262 263 266 268
nan nan nan nan nan nan nan nan nan nan nan nan nan nan nan nan nan nan nan nan nan nan nan nan nan nan 246 248 248 248 245 244 247 247 246 247 248 243 244 247 251 258 266 265 263 264 268 268 266